sat.trackr.live / text

‹ back to catalog

STARLINK-34932

NORAD 65179 · 2025-175F

PAYLOAD ACTIVE UNKNOWN

§ Identity

Operator
Country
US
Launch date
2025-08-14
Launch site
AFWTR
Launch vehicle
Mass (kg)
RCS (m²)

Purposes: comms

External: N2YO · Heavens-Above · Gunter

§ Orbital elements

Epoch: 2026-09-20T10:42:31.096800Z

Period
93.90 min
Inclination
97.2849°
Eccentricity
0.0002125
Mean motion
15.33470264 rev/d
Perigee alt
464.0 km
Apogee alt
466.9 km
Semi-major
6,843.6 km
B*
6.6865e-4
RAAN
132.4109°
Arg perigee
82.9481°
Mean anomaly
277.2003°
Rev number
6,212

§ Raw data

STARLINK-349321 65179U 25175F   26263.44619325  .00021591  00000+0  66865-3 0  99922 65179  97.2849 132.4109 0002125  82.9481 277.2003 15.33470264 62128

JSON: /api/v1/satellites/65179 · /tle

For live sub-satellite position, see the globe view (requires WebGL).

§ Visibility from observer

Set your observer location to see the next 7 days of passes ≥ 10°. The values pass through the URL so the page stays shareable.

No JS? Fill the form by hand. The geolocation button needs JavaScript.